TimeEST,TemperatureF,Dew PointF,Humidity,Sea Level PressureIn,VisibilityMPH,Wind Direction,Wind SpeedMPH,Gust SpeedMPH,PrecipitationIn,Events,Conditions,WindDirDegrees,DateUTC
12:19 AM,21.2,19.4,93,30.28,2.5,Calm,Calm,-,N/A,,Clear,0,2013-01-08 05:19:00
12:36 AM,23.0,19.4,86,30.29,3.0,Calm,Calm,-,N/A,,Clear,0,2013-01-08 05:36:00
12:53 AM,21.9,19.0,89,30.33,3.0,Calm,Calm,-,N/A,,Clear,0,2013-01-08 05:53:00
1:53 AM,-9999,-9999,N/A,30.31,-9999.0,North,-9999.0,-,N/A,,Clear,0,2013-01-08 06:53:00
2:53 AM,-9999,-9999,N/A,30.29,-9999.0,North,-9999.0,-,N/A,,Clear,0,2013-01-08 07:53:00
3:53 AM,-9999,-9999,N/A,30.30,-9999.0,North,-9999.0,-,N/A,,Clear,0,2013-01-08 08:53:00
4:53 AM,-9999,-9999,N/A,30.32,-9999.0,North,-9999.0,-,N/A,,Clear,0,2013-01-08 09:53:00
5:53 AM,-9999,-9999,N/A,30.33,-9999.0,North,-9999.0,-,N/A,,Clear,0,2013-01-08 10:53:00
6:53 AM,-9999,-9999,N/A,30.34,7.0,ESE,3.5,-,N/A,,Clear,120,2013-01-08 11:53:00
7:53 AM,-9999,-9999,N/A,30.36,7.0,ESE,3.5,-,N/A,,Clear,120,2013-01-08 12:53:00
8:53 AM,-9999,-9999,N/A,30.39,10.0,South,3.5,-,N/A,,Clear,180,2013-01-08 13:53:00
9:53 AM,-9999,-9999,N/A,30.39,10.0,South,3.5,-,N/A,,Clear,180,2013-01-08 14:53:00
10:53 AM,-9999,-9999,N/A,30.39,10.0,SW,4.6,-,N/A,,Clear,230,2013-01-08 15:53:00
11:53 AM,-9999,-9999,N/A,30.37,10.0,South,11.5,-,N/A,,Clear,190,2013-01-08 16:53:00
12:53 PM,48.9,28.9,46,30.38,10.0,SW,10.4,20.7,N/A,,Clear,220,2013-01-08 17:53:00
1:53 PM,51.1,30.0,44,30.33,10.0,West,6.9,16.1,N/A,,Clear,270,2013-01-08 18:53:00
2:53 PM,51.1,28.9,43,30.33,10.0,SW,8.1,13.8,N/A,,Clear,230,2013-01-08 19:53:00
3:53 PM,51.1,28.0,41,30.34,10.0,WSW,5.8,-,N/A,,Clear,250,2013-01-08 20:53:00
4:53 PM,48.9,25.0,39,30.33,10.0,SSW,4.6,-,N/A,,Clear,210,2013-01-08 21:53:00
5:53 PM,46.0,25.0,44,30.33,10.0,Calm,Calm,-,N/A,,Clear,0,2013-01-08 22:53:00
7:53 PM,36.0,26.1,67,30.34,8.0,Calm,Calm,-,N/A,,Clear,0,2013-01-09 00:53:00
8:53 PM,34.0,26.1,73,30.33,7.0,Calm,Calm,-,N/A,,Clear,0,2013-01-09 01:53:00
9:53 PM,34.0,27.0,75,30.32,9.0,Calm,Calm,-,N/A,,Clear,0,2013-01-09 02:53:00
10:53 PM,30.9,26.1,82,30.32,7.0,Calm,Calm,-,N/A,,Clear,0,2013-01-09 03:53:00
11:53 PM,30.0,26.1,85,30.32,8.0,Calm,Calm,-,N/A,,Clear,0,2013-01-09 04:53:00